When you browse on this site, cookies collect data to enhance your experience and personalize the content and advertising you see.
Visit our Privacy Policy to learn more. By continuing to use the site, you agree to this use of cookies and data.
  • In Latvia
  • List of Countries
  • For 7 days
  • Water Temperature
  • Satellite Maps
  • Weather Map
  • Weather Widgets
  • user-avatar
    Login

    Hourly Weather Bengazi

    Today, 19 January, Saturday

    Time Temperature Precipitation Wind Pressure Humidity
    00:00 +11°C° 0 mm 7 mps 764 mmHg 47%
    01:00 +11°C° 0 mm 7 mps 764 mmHg 47%
    02:00 +10°C° 0 mm 7 mps 764 mmHg 47%
    03:00 +10°C° 0 mm 7 mps 764 mmHg 47%
    04:00 +10°C° 0 mm 7 mps 764 mmHg 47%
    05:00 +10°C° 0 mm 8 mps 764 mmHg 47%
    06:00 +10°C° 0 mm 8 mps 764 mmHg 47%
    07:00 +9°C° 0 mm 8 mps 764 mmHg 48%
    08:00 +10°C° 0 mm 8 mps 764 mmHg 46%
    09:00 +12°C° 0 mm 8 mps 764 mmHg 43%
    10:00 +13°C° 0 mm 8 mps 764 mmHg 41%
    11:00 +13°C° 0 mm 8 mps 763 mmHg 39%
    12:00 +15°C° 0 mm 8 mps 763 mmHg 37%
    13:00 +16°C° 0 mm 8 mps 762 mmHg 36%
    14:00 +16°C° 0 mm 7 mps 762 mmHg 36%
    15:00 +16°C° 0 mm 7 mps 762 mmHg 36%
    16:00 +16°C° 0 mm 6 mps 761 mmHg 37%
    17:00 +16°C° 0 mm 7 mps 761 mmHg 37%
    18:00 +15°C° 0 mm 7 mps 761 mmHg 38%
    19:00 +15°C° 0 mm 8 mps 761 mmHg 39%
    20:00 +15°C° 0 mm 8 mps 761 mmHg 38%
    21:00 +15°C° 0 mm 8 mps 761 mmHg 38%
    22:00 +15°C° 0 mm 8 mps 761 mmHg 38%
    23:00 +13°C° 0 mm 9 mps 761 mmHg 40%

    Tomorrow, 20 January, Sunday

    Time Temperature Precipitation Wind Pressure Humidity
    00:00 +13°C° 0 mm 9 mps 761 mmHg 43%
    01:00 +13°C° 0 mm 10 mps 760 mmHg 46%
    02:00 +13°C° 0.1 mm 10 mps 760 mmHg 54%
    03:00 +12°C° 0.1 mm 10 mps 760 mmHg 63%
    04:00 +12°C° 0.1 mm 9 mps 760 mmHg 72%
    05:00 +12°C° 0 mm 9 mps 760 mmHg 71%
    06:00 +12°C° 0 mm 9 mps 760 mmHg 70%
    07:00 +12°C° 0 mm 9 mps 761 mmHg 69%
    08:00 +15°C° 0 mm 8 mps 761 mmHg 68%
    09:00 +16°C° 0 mm 8 mps 761 mmHg 67%
    10:00 +17°C° 0 mm 7 mps 761 mmHg 65%
    11:00 +17°C° 0 mm 7 mps 761 mmHg 61%
    12:00 +17°C° 0 mm 6 mps 761 mmHg 56%
    13:00 +19°C° 0 mm 6 mps 760 mmHg 52%
    14:00 +17°C° 0 mm 6 mps 760 mmHg 57%
    15:00 +17°C° 0 mm 6 mps 760 mmHg 61%
    16:00 +16°C° 0 mm 6 mps 760 mmHg 66%
    17:00 +16°C° 0 mm 5 mps 761 mmHg 68%
    18:00 +15°C° 0 mm 5 mps 761 mmHg 70%
    19:00 +15°C° 0 mm 4 mps 762 mmHg 72%
    20:00 +15°C° 0 mm 4 mps 762 mmHg 70%
    21:00 +14°C° 0 mm 3 mps 762 mmHg 68%
    22:00 +14°C° 0 mm 3 mps 763 mmHg 67%
    23:00 +14°C° 0 mm 3 mps 763 mmHg 66%

    Day after tomorrow, 21 January, Monday

    Time Temperature Precipitation Wind Pressure Humidity
    00:00 +14°C° 0 mm 3 mps 763 mmHg 65%
    01:00 +14°C° 0 mm 3 mps 763 mmHg 64%
    02:00 +13°C° 0 mm 3 mps 763 mmHg 64%
    03:00 +14°C° 0 mm 2 mps 763 mmHg 64%
    04:00 +14°C° 0 mm 2 mps 762 mmHg 64%
    05:00 +14°C° 0 mm 2 mps 763 mmHg 65%
    06:00 +14°C° 0 mm 2 mps 763 mmHg 66%
    07:00 +14°C° 0 mm 2 mps 763 mmHg 66%
    08:00 +15°C° 0 mm 2 mps 764 mmHg 62%
    09:00 +16°C° 0 mm 2 mps 764 mmHg 58%
    10:00 +17°C° 0 mm 3 mps 764 mmHg 54%
    11:00 +17°C° 0 mm 3 mps 763 mmHg 52%
    12:00 +18°C° 0 mm 4 mps 763 mmHg 50%
    13:00 +18°C° 0 mm 4 mps 763 mmHg 48%
    14:00 +18°C° 0 mm 4 mps 762 mmHg 49%
    15:00 +18°C° 0 mm 4 mps 762 mmHg 50%
    16:00 +18°C° 0 mm 4 mps 762 mmHg 51%
    17:00 +17°C° 0 mm 4 mps 762 mmHg 54%
    18:00 +17°C° 0 mm 4 mps 762 mmHg 56%
    19:00 +15°C° 0 mm 4 mps 763 mmHg 59%
    20:00 +15°C° 0 mm 5 mps 763 mmHg 59%
    21:00 +14°C° 0 mm 6 mps 763 mmHg 59%
    22:00 +14°C° 0 mm 6 mps 763 mmHg 60%
    23:00 +14°C° 0 mm 7 mps 762 mmHg 59%

    22 January, Tuesday

    Time Temperature Precipitation Wind Pressure Humidity
    00:00 +14°C° 0 mm 7 mps 762 mmHg 57%
    01:00 +13°C° 0 mm 8 mps 762 mmHg 56%
    02:00 +13°C° 0 mm 8 mps 761 mmHg 57%
    03:00 +12°C° 0 mm 8 mps 761 mmHg 57%
    04:00 +12°C° 0 mm 8 mps 761 mmHg 57%
    05:00 +12°C° 0 mm 8 mps 761 mmHg 58%
    06:00 +12°C° 0 mm 8 mps 761 mmHg 59%
    07:00 +12°C° 0 mm 8 mps 761 mmHg 61%
    08:00 +13°C° 0 mm 9 mps 761 mmHg 58%
    09:00 +15°C° 0 mm 9 mps 761 mmHg 55%
    10:00 +17°C° 0 mm 9 mps 761 mmHg 52%
    11:00 +17°C° 0 mm 9 mps 761 mmHg 50%
    12:00 +18°C° 0 mm 9 mps 760 mmHg 48%
    13:00 +18°C° 0 mm 8 mps 760 mmHg 47%
    14:00 +18°C° 0 mm 8 mps 759 mmHg 47%
    15:00 +18°C° 0 mm 8 mps 759 mmHg 47%
    16:00 +18°C° 0 mm 7 mps 758 mmHg 47%
    17:00 +17°C° 0 mm 7 mps 758 mmHg 47%
    18:00 +17°C° 0 mm 7 mps 758 mmHg 47%
    19:00 +16°C° 0 mm 7 mps 758 mmHg 48%
    20:00 +16°C° 0 mm 7 mps 758 mmHg 46%
    21:00 +15°C° 0 mm 8 mps 758 mmHg 45%
    22:00 +15°C° 0 mm 9 mps 757 mmHg 44%
    23:00 +15°C° 0 mm 9 mps 757 mmHg 45%

    23 January, Wednesday

    Time Temperature Precipitation Wind Pressure Humidity
    00:00 +15°C° 0 mm 9 mps 756 mmHg 45%
    01:00 +13°C° 0 mm 9 mps 755 mmHg 45%
    02:00 +13°C° 0 mm 10 mps 755 mmHg 45%
    03:00 +13°C° 0 mm 10 mps 754 mmHg 45%
    04:00 +12°C° 0 mm 10 mps 754 mmHg 45%
    05:00 +12°C° 0.1 mm 10 mps 754 mmHg 46%
    06:00 +12°C° 0.1 mm 10 mps 754 mmHg 47%
    07:00 +12°C° 0.1 mm 10 mps 754 mmHg 48%
    08:00 +13°C° 0.2 mm 10 mps 754 mmHg 47%
    09:00 +13°C° 0.2 mm 10 mps 754 mmHg 47%
    10:00 +14°C° 0.2 mm 10 mps 754 mmHg 46%
    11:00 +16°C° 0 mm 8 mps 753 mmHg 51%
    12:00 +16°C° 0 mm 7 mps 753 mmHg 57%
    13:00 +17°C° 0 mm 6 mps 752 mmHg 62%
    14:00 +16°C° 0 mm 6 mps 752 mmHg 61%
    15:00 +16°C° 0 mm 5 mps 752 mmHg 60%
    16:00 +16°C° 0 mm 5 mps 752 mmHg 59%
    17:00 +15°C° 0.1 mm 5 mps 753 mmHg 63%
    18:00 +14°C° 0.1 mm 5 mps 753 mmHg 67%
    19:00 +14°C° 0.1 mm 5 mps 754 mmHg 70%
    20:00 +14°C° 0.1 mm 5 mps 754 mmHg 70%
    21:00 +14°C° 0.1 mm 6 mps 754 mmHg 69%
    22:00 +14°C° 0.1 mm 6 mps 754 mmHg 68%
    23:00 +14°C° 0.1 mm 7 mps 754 mmHg 64%

    24 January, Thursday

    Time Temperature Precipitation Wind Pressure Humidity
    00:00 +13°C° 0.1 mm 8 mps 754 mmHg 60%
    01:00 +15°C° 0.1 mm 8 mps 753 mmHg 56%
    02:00 +15°C° 0 mm 9 mps 753 mmHg 54%
    03:00 +14°C° 0 mm 11 mps 753 mmHg 51%
    04:00 +14°C° 0 mm 12 mps 752 mmHg 49%
    05:00 +14°C° 0 mm 11 mps 753 mmHg 50%
    06:00 +14°C° 0 mm 11 mps 753 mmHg 51%
    07:00 +14°C° 0 mm 11 mps 754 mmHg 53%
    08:00 +14°C° 0 mm 11 mps 754 mmHg 51%
    09:00 +14°C° 0 mm 11 mps 755 mmHg 50%
    10:00 +16°C° 0 mm 11 mps 755 mmHg 49%
    11:00 +16°C° 0 mm 10 mps 755 mmHg 48%
    12:00 +16°C° 0 mm 10 mps 755 mmHg 48%
    13:00 +16°C° 0 mm 9 mps 755 mmHg 47%
    14:00 +16°C° 0 mm 9 mps 755 mmHg 46%
    15:00 +16°C° 0 mm 9 mps 755 mmHg 45%
    16:00 +16°C° 0 mm 8 mps 755 mmHg 44%
    17:00 +15°C° 0 mm 8 mps 755 mmHg 45%
    18:00 +15°C° 0 mm 8 mps 755 mmHg 47%
    19:00 +15°C° 0 mm 7 mps 756 mmHg 48%
    20:00 +15°C° 0 mm 8 mps 756 mmHg 48%
    21:00 +15°C° 0 mm 9 mps 756 mmHg 49%
    22:00 +14°C° 0 mm 10 mps 756 mmHg 49%
    23:00 +15°C° 0 mm 9 mps 756 mmHg 51%
    Show more